Weather History for New Bedford, MA

Change the Weather History Date:

Monday, March 31, 2014

  Actual Average Record
Temperature  
Mean Temperature 36 °F -  
Max Temperature 37 °F 50 °F 78 °F (1998)
Min Temperature 34 °F 36 °F 21 °F (2008)
Degree Days  
Heating Degree Days 30    
Moisture  
Dew Point 33 °F    
Average Humidity 88    
Maximum Humidity 93    
Minimum Humidity 79    
Precipitation  
Precipitation 0.07 in - - ()
Sea Level Pressure  
Sea Level Pressure 29.77 in    
Wind  
Wind Speed 13 mph (North)    
Max Wind Speed 20 mph    
Max Gust Speed 32 mph    
Visibility 8 miles    
Events Rain , Snow    
Averages and records for this station are not official NWS values.
T = Trace of Precipitation, MM = Missing Value Source: NWS Daily Summary

Daily Weather History Graph

Daily Weather History Graph

Search for Another Location

Airport:

Trip Planner

Search our weather history database for the weather conditions in past years. The results will help you decide how hot, cold, wet, or windy it might be!

Date:

Astronomy

Mar. 31, 2014 Rise Set
Actual Time 6:28 AM EDT 7:08 PM EDT
Civil Twilight 6:00 AM EDT 7:36 PM EDT
Nautical Twilight 5:27 AM EDT 8:09 PM EDT
Astronomical Twilight 4:53 AM EDT 8:43 PM EDT
Moon 6:49 AM EDT (3/31) 8:24 PM EDT (3/31)
Length of Visible Light 13h 35m
Length of Day
12h 39m
New Moon, 1% of the Moon is Illuminated
Mar 31
New Moon
Apr 7
First Quarter
Apr 15
Full
Apr 22
Last Quarter
Apr 29
New

Hourly Weather History & Observations

Time (EDT) Temp. Windchill Dew Point Humidity Pressure Visibility Wind Dir Wind Speed Gust Speed Precip Events Conditions
12:24 AM 37.0 °F 28.1 °F 34.0 °F 89% 29.66 in 4.0 mi North 15.0 mph 24.2 mph 0.03 in Rain Light Rain
12:43 AM 36.0 °F 27.1 °F 34.0 °F 93% 29.66 in 6.0 mi North 13.8 mph 20.7 mph 0.04 in Rain Light Rain
12:53 AM 36.0 °F 26.7 °F 34.0 °F 93% 29.65 in 8.0 mi North 15.0 mph 26.5 mph 0.04 in Rain Light Rain
1:20 AM 36.0 °F 26.3 °F 33.1 °F 89% 29.65 in 10.0 mi NNE 16.1 mph 28.8 mph 0.00 in   Overcast
1:48 AM 35.6 °F 26.2 °F 33.8 °F 93% 29.66 in 9.0 mi NNE 15.0 mph 26.5 mph 0.00 in Rain Light Rain
1:53 AM 36.0 °F 26.7 °F 33.1 °F 89% 29.66 in 7.0 mi NNE 15.0 mph 24.2 mph 0.00 in Rain Light Rain
2:43 AM 35.1 °F 26.4 °F 33.1 °F 92% 29.65 in 5.0 mi North 12.7 mph 25.3 mph 0.00 in Rain Light Rain
2:49 AM 35.6 °F 25.9 °F 33.8 °F 93% 29.64 in 5.0 mi NNE 16.1 mph 24.2 mph 0.00 in Rain Light Rain
2:53 AM 35.1 °F 25.2 °F 32.0 °F 89% 29.65 in 5.0 mi NNE 16.1 mph 24.2 mph 0.00 in Rain Light Rain
3:06 AM 35.1 °F 25.2 °F 32.0 °F 89% 29.64 in 4.0 mi NNE 16.1 mph 28.8 mph 0.00 in Rain Light Rain
3:53 AM 35.1 °F 27.9 °F 32.0 °F 89% 29.65 in 9.0 mi North 9.2 mph 24.2 mph 0.00 in Rain Light Rain
4:09 AM 35.1 °F 25.9 °F 32.0 °F 89% 29.65 in 10.0 mi North 13.8 mph 20.7 mph 0.00 in   Overcast
4:53 AM 35.1 °F 26.9 °F 32.0 °F 89% 29.66 in 10.0 mi North 11.5 mph 26.5 mph 0.00 in   Overcast
5:53 AM 34.0 °F 25.5 °F 30.9 °F 89% 29.68 in 6.0 mi North 11.5 mph 21.9 mph 0.00 in Rain Light Rain
6:29 AM 34.0 °F 24.2 °F 32.0 °F 92% 29.69 in 4.0 mi NNE 15.0 mph 29.9 mph 0.00 in Snow Light Snow
6:53 AM 34.0 °F 26.0 °F 32.0 °F 92% 29.70 in 2.5 mi North 10.4 mph 18.4 mph 0.00 in Rain Light Rain
7:53 AM 34.0 °F 25.0 °F 32.0 °F 92% 29.73 in 5.0 mi North 12.7 mph 21.9 mph 0.01 in Rain Light Rain
7:55 AM 34.0 °F 25.5 °F 32.0 °F 92% 29.73 in 6.0 mi North 11.5 mph 21.9 mph 0.00 in Rain Light Rain
8:53 AM 35.1 °F 27.4 °F 32.0 °F 89% 29.75 in 10.0 mi North 10.4 mph 20.7 mph 0.00 in Rain Light Rain
9:35 AM 35.1 °F 24.5 °F 32.0 °F 89% 29.76 in 7.0 mi North 18.4 mph 26.5 mph 0.00 in Snow Light Snow
9:42 AM 35.1 °F 26.9 °F 32.0 °F 89% 29.77 in 9.0 mi North 11.5 mph 26.5 mph 0.00 in Rain Light Rain
9:51 AM 35.6 °F 27.5 °F 32.0 °F 87% 29.77 in 8.0 mi North 11.5 mph 27.6 mph 0.00 in Rain Light Rain
9:53 AM 36.0 °F 26.3 °F 33.1 °F 89% 29.77 in 8.0 mi North 16.1 mph 27.6 mph 0.00 in Rain Light Rain
10:03 AM 36.0 °F 27.1 °F 32.0 °F 86% 29.77 in 10.0 mi North 13.8 mph 28.8 mph 0.00 in   Overcast
10:53 AM 36.0 °F 26.0 °F 32.0 °F 86% 29.78 in 7.0 mi North 17.3 mph 27.6 mph 0.00 in Snow Light Snow
11:13 AM 36.0 °F 27.5 °F 32.0 °F 86% 29.78 in 10.0 mi North 12.7 mph 28.8 mph 0.00 in Rain Light Rain
11:27 AM 36.0 °F 29.6 °F 33.1 °F 89% 29.78 in 7.0 mi North 8.1 mph 24.2 mph 0.00 in Rain Light Rain
11:35 AM 37.0 °F 29.3 °F 34.0 °F 89% 29.78 in 9.0 mi North 11.5 mph 20.7 mph 0.00 in Rain Light Rain
11:53 AM 37.0 °F 28.1 °F 34.0 °F 89% 29.78 in 10.0 mi North 15.0 mph 28.8 mph 0.00 in Snow Light Snow
12:38 PM 37.9 °F 29.6 °F 33.1 °F 83% 29.79 in 9.0 mi North 13.8 mph 31.1 mph 0.00 in Rain Light Rain
12:53 PM 37.0 °F 28.9 °F 33.1 °F 86% 29.79 in 9.0 mi North 12.7 mph 23.0 mph 0.00 in   Overcast
1:21 PM 37.0 °F 30.4 °F 33.1 °F 86% 29.79 in 8.0 mi North 9.2 mph 25.3 mph 0.00 in Snow Light Snow
1:53 PM 37.0 °F 26.7 °F 32.0 °F 82% 29.81 in 10.0 mi North 19.6 mph 32.2 mph 0.00 in Rain Light Rain
2:05 PM 37.0 °F 27.4 °F 30.9 °F 79% 29.81 in 10.0 mi NNE 17.3 mph 25.3 mph 0.00 in   Overcast
2:30 PM 36.0 °F 26.0 °F 32.0 °F 86% 29.81 in 6.0 mi North 17.3 mph 25.3 mph 0.00 in Snow Light Snow
2:53 PM 36.0 °F 28.5 °F 32.0 °F 86% 29.83 in 9.0 mi North 10.4 mph 26.5 mph 0.00 in Rain Light Rain
3:01 PM 37.0 °F 30.4 °F 32.0 °F 82% 29.82 in 10.0 mi North 9.2 mph 24.2 mph 0.00 in   Overcast
3:14 PM 36.0 °F 26.7 °F 33.1 °F 89% 29.83 in 7.0 mi North 15.0 mph 20.7 mph 0.00 in Rain Light Rain
3:53 PM 37.0 °F 28.1 °F 33.1 °F 86% 29.84 in 10.0 mi North 15.0 mph 24.2 mph 0.00 in   Overcast
4:53 PM 36.0 °F 28.5 °F 33.1 °F 89% 29.87 in 4.0 mi North 10.4 mph 17.3 mph 0.02 in Rain Light Rain
5:53 PM 37.0 °F 31.0 °F 34.0 °F 89% 29.88 in 10.0 mi North 8.1 mph - 0.00 in   Overcast
6:05 PM 37.0 °F 33.3 °F 34.0 °F 89% 29.88 in 10.0 mi North 4.6 mph - N/A   Overcast
6:44 PM 36.0 °F 30.3 °F 34.0 °F 93% 29.90 in 8.0 mi North 6.9 mph - N/A   Overcast
6:53 PM 36.0 °F 32.1 °F 34.0 °F 93% 29.91 in 10.0 mi NNW 4.6 mph - N/A   Overcast
7:04 PM 36.0 °F 32.1 °F 34.0 °F 93% 29.90 in 10.0 mi NW 4.6 mph - N/A   Overcast
7:53 PM 36.0 °F 33.3 °F 34.0 °F 93% 29.92 in 10.0 mi NW 3.5 mph - N/A   Overcast
8:53 PM 37.0 °F 33.3 °F 34.0 °F 89% 29.94 in 10.0 mi Variable 4.6 mph - N/A   Overcast
9:53 PM 37.9 °F 33.5 °F 33.1 °F 83% 29.95 in 10.0 mi North 5.8 mph - 0.00 in   Overcast
10:53 PM 37.0 °F 29.8 °F 32.0 °F 82% 29.96 in 10.0 mi NNW 10.4 mph - N/A   Overcast
11:53 PM 37.0 °F 31.6 °F 32.0 °F 82% 29.96 in 10.0 mi North 6.9 mph - 0.00 in   Overcast